Time,TemperatureF,DewpointF,PressureIn,WindDirection,WindDirectionDegrees,WindSpeedMPH,WindSpeedGustMPH,Humidity,HourlyPrecipIn,Conditions,Clouds,dailyrainin,SoftwareType,DateUTC
2013-04-17 00:01:00,50.4,25.0,30.20,ENE,61,12.0,19.0,37,0.00,,,0.00,meteohub,2013-04-17 07:01:00,
2013-04-17 00:06:00,50.4,25.0,30.20,NE,54,9.0,18.0,37,0.00,,,0.00,meteohub,2013-04-17 07:06:00,
2013-04-17 00:11:00,50.2,25.5,30.20,North,11,16.0,18.0,38,0.00,,,0.00,meteohub,2013-04-17 07:11:00,
2013-04-17 00:16:00,50.0,25.3,30.20,ENE,59,8.0,18.0,38,0.00,,,0.00,meteohub,2013-04-17 07:16:00,
2013-04-17 00:21:00,49.8,25.2,30.20,NE,45,9.0,22.0,38,0.00,,,0.00,meteohub,2013-04-17 07:21:00,
2013-04-17 00:26:00,49.8,25.9,30.21,NE,37,8.0,22.0,39,0.00,,,0.00,meteohub,2013-04-17 07:26:00,
2013-04-17 00:31:00,49.6,25.7,30.21,NE,46,5.0,13.0,39,0.00,,,0.00,meteohub,2013-04-17 07:31:00,
2013-04-17 00:36:00,49.5,26.1,30.21,NNW,330,7.0,13.0,40,0.00,,,0.00,meteohub,2013-04-17 07:36:00,
2013-04-17 00:41:00,49.3,26.6,30.21,NNE,32,4.0,17.0,41,0.00,,,0.00,meteohub,2013-04-17 07:41:00,
2013-04-17 00:46:00,49.1,26.4,30.22,NNE,28,9.0,17.0,41,0.00,,,0.00,meteohub,2013-04-17 07:46:00,
2013-04-17 00:51:00,48.9,26.2,30.22,NE,36,4.0,17.0,41,0.00,,,0.00,meteohub,2013-04-17 07:51:00,
2013-04-17 00:56:00,48.7,26.6,30.22,East,81,7.0,11.0,42,0.00,,,0.00,meteohub,2013-04-17 07:56:00,
2013-04-17 01:01:00,48.7,26.6,30.22,North,5,5.0,11.0,42,0.00,,,0.00,meteohub,2013-04-17 08:01:00,
2013-04-17 01:06:00,48.6,27.1,30.22,NNE,22,5.0,12.0,43,0.00,,,0.00,meteohub,2013-04-17 08:06:00,
2013-04-17 01:11:00,48.4,27.0,30.22,NNE,32,6.0,12.0,43,0.00,,,0.00,meteohub,2013-04-17 08:11:00,
2013-04-17 01:16:00,48.2,27.3,30.23,NE,38,9.0,12.0,44,0.00,,,0.00,meteohub,2013-04-17 08:16:00,
2013-04-17 01:21:00,48.0,27.1,30.22,NE,56,10.0,12.0,44,0.00,,,0.00,meteohub,2013-04-17 08:21:00,
2013-04-17 01:26:00,48.0,27.1,30.22,NE,42,7.0,12.0,44,0.00,,,0.00,meteohub,2013-04-17 08:26:00,
2013-04-17 01:31:00,48.0,27.1,30.22,NE,52,13.0,17.0,44,0.00,,,0.00,meteohub,2013-04-17 08:31:00,
2013-04-17 01:36:00,48.0,27.1,30.22,NE,49,13.0,21.0,44,0.00,,,0.00,meteohub,2013-04-17 08:36:00,
2013-04-17 01:42:00,48.2,27.3,30.22,NE,37,14.0,21.0,44,0.00,,,0.00,meteohub,2013-04-17 08:42:00,
2013-04-17 01:47:00,48.2,27.3,30.22,ENE,57,12.0,21.0,44,0.00,,,0.00,meteohub,2013-04-17 08:47:00,
2013-04-17 01:52:00,48.2,27.3,30.22,NE,48,16.0,17.0,44,0.00,,,0.00,meteohub,2013-04-17 08:52:00,
2013-04-17 01:57:00,48.4,27.5,30.22,NE,47,12.0,20.0,44,0.00,,,0.00,meteohub,2013-04-17 08:57:00,
2013-04-17 02:02:00,48.4,27.5,30.22,ENE,62,13.0,20.0,44,0.00,,,0.00,meteohub,2013-04-17 09:02:00,
2013-04-17 02:07:00,48.2,27.3,30.22,NE,40,12.0,20.0,44,0.00,,,0.00,meteohub,2013-04-17 09:07:00,
2013-04-17 02:12:00,48.4,27.5,30.22,ENE,65,15.0,22.0,44,0.00,,,0.00,meteohub,2013-04-17 09:12:00,
2013-04-17 02:17:00,48.4,27.5,30.22,NE,53,14.0,22.0,44,0.00,,,0.00,meteohub,2013-04-17 09:17:00,
2013-04-17 02:22:00,48.4,27.5,30.22,NE,34,11.0,25.0,44,0.00,,,0.00,meteohub,2013-04-17 09:22:00,
2013-04-17 02:27:00,48.4,27.5,30.22,NE,42,9.0,25.0,44,0.00,,,0.00,meteohub,2013-04-17 09:27:00,
2013-04-17 02:32:00,48.2,27.3,30.22,NE,49,13.0,25.0,44,0.00,,,0.00,meteohub,2013-04-17 09:32:00,
2013-04-17 02:37:00,48.0,27.1,30.22,NE,46,13.0,25.0,44,0.00,,,0.00,meteohub,2013-04-17 09:37:00,
2013-04-17 02:42:00,48.0,27.1,30.22,NNE,33,16.0,23.0,44,0.00,,,0.00,meteohub,2013-04-17 09:42:00,
2013-04-17 02:47:00,48.0,27.7,30.22,NE,45,16.0,23.0,45,0.00,,,0.00,meteohub,2013-04-17 09:47:00,
2013-04-17 02:52:00,47.8,27.5,30.22,NE,52,12.0,23.0,45,0.00,,,0.00,meteohub,2013-04-17 09:52:00,
2013-04-17 02:57:00,47.8,27.5,30.22,NE,52,15.0,27.0,45,0.00,,,0.00,meteohub,2013-04-17 09:57:00,
2013-04-17 03:02:00,48.0,27.7,30.22,NE,43,16.0,27.0,45,0.00,,,0.00,meteohub,2013-04-17 10:02:00,
2013-04-17 03:07:00,47.8,27.5,30.22,NE,42,13.0,27.0,45,0.00,,,0.00,meteohub,2013-04-17 10:07:00,
2013-04-17 03:12:00,48.0,27.7,30.21,NE,34,22.0,28.0,45,0.00,,,0.00,meteohub,2013-04-17 10:12:00,
2013-04-17 03:17:00,47.8,28.0,30.22,NNE,27,13.0,28.0,46,0.00,,,0.00,meteohub,2013-04-17 10:17:00,
2013-04-17 03:22:00,47.8,28.0,30.22,NNE,32,12.0,28.0,46,0.00,,,0.00,meteohub,2013-04-17 10:22:00,
2013-04-17 03:27:00,47.7,27.9,30.22,NE,34,11.0,25.0,46,0.00,,,0.00,meteohub,2013-04-17 10:27:00,
2013-04-17 03:32:00,47.5,27.7,30.21,NNE,27,10.0,22.0,46,0.00,,,0.00,meteohub,2013-04-17 10:32:00,
2013-04-17 03:37:00,47.5,27.7,30.22,NE,50,13.0,22.0,46,0.00,,,0.00,meteohub,2013-04-17 10:37:00,
2013-04-17 03:42:00,47.3,28.0,30.22,NE,39,12.0,22.0,47,0.00,,,0.00,meteohub,2013-04-17 10:42:00,
2013-04-17 03:47:00,47.1,27.9,30.22,NE,36,12.0,22.0,47,0.00,,,0.00,meteohub,2013-04-17 10:47:00,
2013-04-17 03:52:00,46.9,27.7,30.22,NNE,24,17.0,22.0,47,0.00,,,0.00,meteohub,2013-04-17 10:52:00,
2013-04-17 03:57:00,46.9,27.7,30.22,NE,51,13.0,20.0,47,0.00,,,0.00,meteohub,2013-04-17 10:57:00,
2013-04-17 04:02:00,46.9,27.7,30.22,NE,34,13.0,20.0,47,0.00,,,0.00,meteohub,2013-04-17 11:02:00,
2013-04-17 04:07:00,46.9,27.7,30.22,NE,46,13.0,20.0,47,0.00,,,0.00,meteohub,2013-04-17 11:07:00,
2013-04-17 04:12:00,46.9,27.7,30.22,NE,36,13.0,19.0,47,0.00,,,0.00,meteohub,2013-04-17 11:12:00,
2013-04-17 04:17:00,46.9,27.7,30.22,NE,45,11.0,19.0,47,0.00,,,0.00,meteohub,2013-04-17 11:17:00,
2013-04-17 04:22:00,46.9,28.2,30.22,NNE,26,8.0,19.0,48,0.00,,,0.00,meteohub,2013-04-17 11:22:00,
2013-04-17 04:27:00,46.8,28.0,30.22,NE,44,12.0,19.0,48,0.00,,,0.00,meteohub,2013-04-17 11:27:00,
2013-04-17 04:32:00,46.6,27.9,30.22,NE,39,7.0,19.0,48,0.00,,,0.00,meteohub,2013-04-17 11:32:00,
2013-04-17 04:37:00,46.6,27.9,30.22,NNE,26,17.0,20.0,48,0.00,,,0.00,meteohub,2013-04-17 11:37:00,
2013-04-17 04:42:00,46.4,28.2,30.22,NE,55,15.0,20.0,49,0.00,,,0.00,meteohub,2013-04-17 11:42:00,
2013-04-17 04:47:00,46.4,28.2,30.22,NE,49,12.0,20.0,49,0.00,,,0.00,meteohub,2013-04-17 11:47:00,
2013-04-17 04:52:00,46.6,28.4,30.22,NE,53,14.0,20.0,49,0.00,,,0.00,meteohub,2013-04-17 11:52:00,
2013-04-17 04:57:00,46.6,28.4,30.22,NE,51,12.0,21.0,49,0.00,,,0.00,meteohub,2013-04-17 11:57:00,
2013-04-17 05:02:00,46.6,28.4,30.22,NNE,16,10.0,21.0,49,0.00,,,0.00,meteohub,2013-04-17 12:02:00,
2013-04-17 05:07:00,46.6,27.9,30.22,NNE,23,11.0,21.0,48,0.00,,,0.00,meteohub,2013-04-17 12:07:00,
2013-04-17 05:12:00,46.6,27.9,30.22,NE,55,15.0,21.0,48,0.00,,,0.00,meteohub,2013-04-17 12:12:00,
2013-04-17 05:17:00,46.2,28.0,30.22,NE,35,17.0,19.0,49,0.00,,,0.00,meteohub,2013-04-17 12:17:00,
2013-04-17 05:22:00,46.2,28.0,30.23,North,5,11.0,19.0,49,0.00,,,0.00,meteohub,2013-04-17 12:22:00,
2013-04-17 05:27:00,46.2,28.0,30.23,NE,34,13.0,24.0,49,0.00,,,0.00,meteohub,2013-04-17 12:27:00,
2013-04-17 05:32:00,46.2,27.7,30.23,NE,55,9.0,24.0,48,0.00,,,0.00,meteohub,2013-04-17 12:32:00,
2013-04-17 05:37:00,46.2,27.7,30.23,NE,51,10.0,21.0,48,0.00,,,0.00,meteohub,2013-04-17 12:37:00,
2013-04-17 05:42:00,46.4,27.9,30.23,NE,43,12.0,21.0,48,0.00,,,0.00,meteohub,2013-04-17 12:42:00,
2013-04-17 05:47:00,46.4,27.9,30.24,NE,34,7.0,21.0,48,0.00,,,0.00,meteohub,2013-04-17 12:47:00,
2013-04-17 05:52:00,46.6,27.5,30.24,NNE,17,8.0,21.0,47,0.00,,,0.00,meteohub,2013-04-17 12:52:00,
2013-04-17 05:57:00,46.4,27.3,30.24,NE,42,12.0,21.0,47,0.00,,,0.00,meteohub,2013-04-17 12:57:00,
2013-04-17 06:02:00,46.4,27.3,30.24,NNE,26,15.0,21.0,47,0.00,,,0.00,meteohub,2013-04-17 13:02:00,
2013-04-17 06:07:00,46.4,27.3,30.24,NNE,32,8.0,23.0,47,0.00,,,0.00,meteohub,2013-04-17 13:07:00,
2013-04-17 06:12:00,46.6,27.0,30.24,NE,35,13.0,23.0,46,0.00,,,0.00,meteohub,2013-04-17 13:12:00,
2013-04-17 06:17:00,46.6,27.0,30.24,NNE,22,10.0,23.0,46,0.00,,,0.00,meteohub,2013-04-17 13:17:00,
2013-04-17 06:22:00,46.4,26.8,30.24,ENE,57,19.0,22.0,46,0.00,,,0.00,meteohub,2013-04-17 13:22:00,
2013-04-17 06:27:00,46.4,26.8,30.24,North,355,12.0,22.0,46,0.00,,,0.00,meteohub,2013-04-17 13:27:00,
2013-04-17 06:32:00,46.4,26.8,30.24,NNE,31,10.0,21.0,46,0.00,,,0.00,meteohub,2013-04-17 13:32:00,
2013-04-17 06:37:00,46.2,26.6,30.25,NW,324,10.0,21.0,46,0.00,,,0.00,meteohub,2013-04-17 13:37:00,
2013-04-17 06:42:00,46.2,26.6,30.25,NNE,15,14.0,21.0,46,0.00,,,0.00,meteohub,2013-04-17 13:42:00,
2013-04-17 06:47:00,46.2,26.6,30.25,NE,43,14.0,22.0,46,0.00,,,0.00,meteohub,2013-04-17 13:47:00,
2013-04-17 06:52:00,46.2,26.6,30.25,NE,53,11.0,22.0,46,0.00,,,0.00,meteohub,2013-04-17 13:52:00,
2013-04-17 06:57:00,46.4,26.8,30.25,NNE,19,11.0,23.0,46,0.00,,,0.00,meteohub,2013-04-17 13:57:00,
2013-04-17 07:02:00,46.4,26.8,30.25,ENE,67,14.0,23.0,46,0.00,,,0.00,meteohub,2013-04-17 14:02:00,
2013-04-17 07:07:00,46.4,26.8,30.25,ENE,59,12.0,23.0,46,0.00,,,0.00,meteohub,2013-04-17 14:07:00,
2013-04-17 07:12:00,46.4,27.3,30.26,NNE,32,10.0,23.0,47,0.00,,,0.00,meteohub,2013-04-17 14:12:00,
2013-04-17 07:17:00,46.4,27.3,30.25,NE,49,15.0,22.0,47,0.00,,,0.00,meteohub,2013-04-17 14:17:00,
2013-04-17 07:22:00,46.4,27.3,30.26,NE,51,14.0,23.0,47,0.00,,,0.00,meteohub,2013-04-17 14:22:00,
2013-04-17 07:27:00,46.6,27.5,30.26,NE,40,9.0,23.0,47,0.00,,,0.00,meteohub,2013-04-17 14:27:00,
2013-04-17 07:32:00,46.8,27.7,30.26,NNE,13,13.0,23.0,47,0.00,,,0.00,meteohub,2013-04-17 14:32:00,
2013-04-17 07:37:00,46.8,28.0,30.26,NE,38,12.0,23.0,48,0.00,,,0.00,meteohub,2013-04-17 14:37:00,
2013-04-17 07:42:00,46.8,28.0,30.26,NNE,30,14.0,23.0,48,0.00,,,0.00,meteohub,2013-04-17 14:42:00,
2013-04-17 07:47:00,46.9,28.2,30.27,NE,39,10.0,23.0,48,0.00,,,0.00,meteohub,2013-04-17 14:47:00,
2013-04-17 07:52:00,46.9,28.2,30.27,NNE,20,10.0,23.0,48,0.00,,,0.00,meteohub,2013-04-17 14:52:00,
2013-04-17 07:57:00,47.1,28.4,30.27,ENE,61,16.0,20.0,48,0.00,,,0.00,meteohub,2013-04-17 14:57:00,
2013-04-17 08:02:00,47.3,28.6,30.27,NNE,15,6.0,20.0,48,0.00,,,0.00,meteohub,2013-04-17 15:02:00,
2013-04-17 08:07:00,47.5,28.8,30.27,ENE,61,11.0,19.0,48,0.00,,,0.00,meteohub,2013-04-17 15:07:00,
2013-04-17 08:12:00,47.7,28.9,30.27,NNE,30,12.0,24.0,48,0.00,,,0.00,meteohub,2013-04-17 15:12:00,
2013-04-17 08:17:00,47.8,28.0,30.27,North,5,9.0,24.0,46,0.00,,,0.00,meteohub,2013-04-17 15:17:00,
2013-04-17 08:22:00,48.0,29.3,30.27,NE,53,8.0,24.0,48,0.00,,,0.00,meteohub,2013-04-17 15:22:00,
2013-04-17 08:27:00,48.2,27.9,30.27,NNE,27,13.0,23.0,45,0.00,,,0.00,meteohub,2013-04-17 15:27:00,
2013-04-17 08:32:00,48.4,28.0,30.27,NNE,30,6.0,22.0,45,0.00,,,0.00,meteohub,2013-04-17 15:32:00,
2013-04-17 08:37:00,48.6,28.2,30.27,NE,48,11.0,22.0,45,0.00,,,0.00,meteohub,2013-04-17 15:37:00,
2013-04-17 08:42:00,48.7,28.4,30.27,NE,34,20.0,22.0,45,0.00,,,0.00,meteohub,2013-04-17 15:42:00,
2013-04-17 08:47:00,48.9,28.0,30.27,ENE,63,11.0,22.0,44,0.00,,,0.00,meteohub,2013-04-17 15:47:00,
2013-04-17 08:52:00,48.9,28.0,30.27,NNE,28,13.0,24.0,44,0.00,,,0.00,meteohub,2013-04-17 15:52:00,
2013-04-17 08:57:00,49.3,27.7,30.27,North,9,13.0,25.0,43,0.00,,,0.00,meteohub,2013-04-17 15:57:00,
2013-04-17 09:02:00,49.5,27.9,30.27,NNE,15,8.0,25.0,43,0.00,,,0.00,meteohub,2013-04-17 16:02:00,
2013-04-17 09:07:00,49.6,27.0,30.27,NE,42,17.0,26.0,41,0.00,,,0.00,meteohub,2013-04-17 16:07:00,
2013-04-17 09:12:00,49.8,25.9,30.27,NE,44,18.0,26.0,39,0.00,,,0.00,meteohub,2013-04-17 16:12:00,
2013-04-17 09:17:00,49.8,25.9,30.27,NE,48,15.0,31.0,39,0.00,,,0.00,meteohub,2013-04-17 16:17:00,
2013-04-17 09:22:00,50.0,25.3,30.27,NE,43,19.0,31.0,38,0.00,,,0.00,meteohub,2013-04-17 16:22:00,
2013-04-17 09:27:00,50.2,26.2,30.27,North,9,10.0,31.0,39,0.00,,,0.00,meteohub,2013-04-17 16:27:00,
2013-04-17 09:32:00,50.5,26.4,30.27,NE,37,9.0,26.0,39,0.00,,,0.00,meteohub,2013-04-17 16:32:00,
2013-04-17 09:37:00,50.7,26.6,30.28,NE,55,12.0,24.0,39,0.00,,,0.00,meteohub,2013-04-17 16:37:00,
2013-04-17 09:42:00,51.1,27.0,30.28,ENE,58,10.0,21.0,39,0.00,,,0.00,meteohub,2013-04-17 16:42:00,
2013-04-17 09:47:00,51.3,25.9,30.28,NE,34,14.0,24.0,37,0.00,,,0.00,meteohub,2013-04-17 16:47:00,
2013-04-17 09:52:00,51.4,26.6,30.27,ENE,57,13.0,24.0,38,0.00,,,0.00,meteohub,2013-04-17 16:52:00,
2013-04-17 09:57:00,51.6,26.2,30.28,NNE,24,11.0,24.0,37,0.00,,,0.00,meteohub,2013-04-17 16:57:00,
2013-04-17 10:02:00,52.0,26.6,30.28,NE,49,9.0,24.0,37,0.00,,,0.00,meteohub,2013-04-17 17:02:00,
2013-04-17 10:07:00,52.2,25.3,30.28,NE,43,18.0,24.0,35,0.00,,,0.00,meteohub,2013-04-17 17:07:00,
2013-04-17 10:12:00,52.0,24.4,30.28,NE,44,14.0,26.0,34,0.00,,,0.00,meteohub,2013-04-17 17:12:00,
2013-04-17 10:17:00,52.2,25.3,30.28,NNE,27,12.0,26.0,35,0.00,,,0.00,meteohub,2013-04-17 17:17:00,
2013-04-17 10:22:00,52.2,23.2,30.29,NE,36,21.0,29.0,32,0.00,,,0.00,meteohub,2013-04-17 17:22:00,
2013-04-17 10:27:00,52.0,23.0,30.28,NNE,32,12.0,29.0,32,0.00,,,0.00,meteohub,2013-04-17 17:27:00,
2013-04-17 10:32:00,52.3,25.5,30.29,North,0,8.0,29.0,35,0.00,,,0.00,meteohub,2013-04-17 17:32:00,
2013-04-17 10:37:00,52.7,24.4,30.29,ENE,67,14.0,25.0,33,0.00,,,0.00,meteohub,2013-04-17 17:37:00,
2013-04-17 10:42:00,52.7,23.7,30.29,NE,51,20.0,25.0,32,0.00,,,0.00,meteohub,2013-04-17 17:42:00,
2013-04-17 10:47:00,52.9,25.3,30.29,North,5,14.0,30.0,34,0.00,,,0.00,meteohub,2013-04-17 17:47:00,
2013-04-17 10:52:00,53.1,24.8,30.29,NNE,25,13.0,30.0,33,0.00,,,0.00,meteohub,2013-04-17 17:52:00,
2013-04-17 10:57:00,53.1,24.8,30.28,NE,36,18.0,31.0,33,0.00,,,0.00,meteohub,2013-04-17 17:57:00,
2013-04-17 11:02:00,53.2,23.4,30.29,NE,48,13.0,31.0,31,0.00,,,0.00,meteohub,2013-04-17 18:02:00,
2013-04-17 11:07:00,53.6,24.4,30.28,NNE,17,14.0,31.0,32,0.00,,,0.00,meteohub,2013-04-17 18:07:00,
2013-04-17 11:12:00,53.8,24.6,30.29,NE,46,15.0,27.0,32,0.00,,,0.00,meteohub,2013-04-17 18:12:00,
2013-04-17 11:17:00,54.0,23.2,30.29,ENE,64,19.0,27.0,30,0.00,,,0.00,meteohub,2013-04-17 18:17:00,
2013-04-17 11:22:00,53.8,23.9,30.29,NNE,26,13.0,27.0,31,0.00,,,0.00,meteohub,2013-04-17 18:22:00,
2013-04-17 11:27:00,54.0,24.1,30.29,ENE,67,17.0,26.0,31,0.00,,,0.00,meteohub,2013-04-17 18:27:00,
2013-04-17 11:32:00,53.8,23.0,30.29,NE,34,16.0,29.0,30,0.00,,,0.00,meteohub,2013-04-17 18:32:00,
2013-04-17 11:37:00,54.1,23.4,30.29,NE,40,19.0,29.0,30,0.00,,,0.00,meteohub,2013-04-17 18:37:00,
2013-04-17 11:42:00,54.3,25.2,30.29,NE,53,16.0,29.0,32,0.00,,,0.00,meteohub,2013-04-17 18:42:00,
2013-04-17 11:47:00,54.7,24.6,30.29,ENE,60,12.0,25.0,31,0.00,,,0.00,meteohub,2013-04-17 18:47:00,
2013-04-17 11:52:00,54.9,24.8,30.30,NNE,32,13.0,23.0,31,0.00,,,0.00,meteohub,2013-04-17 18:52:00,
2013-04-17 11:57:00,54.7,23.9,30.30,NNE,32,9.0,21.0,30,0.00,,,0.00,meteohub,2013-04-17 18:57:00,
2013-04-17 12:02:00,54.9,24.8,30.30,North,5,10.0,23.0,31,0.00,,,0.00,meteohub,2013-04-17 19:02:00,
2013-04-17 12:07:00,55.4,26.1,30.29,NE,53,18.0,23.0,32,0.00,,,0.00,meteohub,2013-04-17 19:07:00,
2013-04-17 12:12:00,55.6,24.6,30.29,NE,50,12.0,23.0,30,0.00,,,0.00,meteohub,2013-04-17 19:12:00,
2013-04-17 12:18:00,55.4,25.3,30.29,NE,36,6.0,20.0,31,0.00,,,0.00,meteohub,2013-04-17 19:18:00,
2013-04-17 12:23:00,55.6,25.3,30.29,NNW,348,6.0,20.0,31,0.00,,,0.00,meteohub,2013-04-17 19:23:00,
2013-04-17 12:28:00,56.1,25.2,30.29,North,5,13.0,20.0,30,0.00,,,0.00,meteohub,2013-04-17 19:28:00,
2013-04-17 12:33:00,55.9,25.0,30.30,North,355,7.0,20.0,30,0.00,,,0.00,meteohub,2013-04-17 19:33:00,
2013-04-17 12:38:00,56.1,25.9,30.29,NNE,32,5.0,20.0,31,0.00,,,0.00,meteohub,2013-04-17 19:38:00,
2013-04-17 12:43:00,56.7,25.5,30.30,NE,51,18.0,20.0,30,0.00,,,0.00,meteohub,2013-04-17 19:43:00,
2013-04-17 12:48:00,56.7,25.5,30.29,ENE,65,14.0,22.0,30,0.00,,,0.00,meteohub,2013-04-17 19:48:00,
2013-04-17 12:53:00,56.7,24.8,30.29,NNE,28,17.0,22.0,29,0.00,,,0.00,meteohub,2013-04-17 19:53:00,
2013-04-17 12:58:00,56.7,24.8,30.29,NE,41,13.0,22.0,29,0.00,,,0.00,meteohub,2013-04-17 19:58:00,
2013-04-17 13:03:00,56.8,24.1,30.29,NE,49,13.0,19.0,28,0.00,,,0.00,meteohub,2013-04-17 20:03:00,
2013-04-17 13:08:00,57.0,23.4,30.28,NNW,335,3.0,19.0,27,0.00,,,0.00,meteohub,2013-04-17 20:08:00,
2013-04-17 13:13:00,57.4,22.8,30.28,ENE,62,17.0,18.0,26,0.00,,,0.00,meteohub,2013-04-17 20:13:00,
2013-04-17 13:18:00,57.4,23.7,30.28,ENE,70,14.0,23.0,27,0.00,,,0.00,meteohub,2013-04-17 20:18:00,
2013-04-17 13:23:00,57.2,22.6,30.28,ENE,67,9.0,23.0,26,0.00,,,0.00,meteohub,2013-04-17 20:23:00,
2013-04-17 13:28:00,57.4,22.8,30.28,NE,41,6.0,23.0,26,0.00,,,0.00,meteohub,2013-04-17 20:28:00,
2013-04-17 13:33:00,57.9,21.4,30.28,North,5,15.0,17.0,24,0.00,,,0.00,meteohub,2013-04-17 20:33:00,
2013-04-17 13:38:00,58.5,24.6,30.27,NNE,19,6.0,17.0,27,0.00,,,0.00,meteohub,2013-04-17 20:38:00,
2013-04-17 13:43:00,58.8,25.7,30.27,ENE,74,12.0,17.0,28,0.00,,,0.00,meteohub,2013-04-17 20:43:00,
2013-04-17 13:48:00,58.8,24.1,30.27,NE,53,11.0,18.0,26,0.00,,,0.00,meteohub,2013-04-17 20:48:00,
2013-04-17 13:53:00,58.8,24.1,30.27,NE,45,12.0,18.0,26,0.00,,,0.00,meteohub,2013-04-17 20:53:00,
2013-04-17 13:58:00,58.3,22.6,30.27,NNE,21,17.0,22.0,25,0.00,,,0.00,meteohub,2013-04-17 20:58:00,
2013-04-17 14:03:00,58.5,22.8,30.27,NNE,32,6.0,22.0,25,0.00,,,0.00,meteohub,2013-04-17 21:03:00,
2013-04-17 14:08:00,58.8,25.0,30.27,NE,41,5.0,22.0,27,0.00,,,0.00,meteohub,2013-04-17 21:08:00,
2013-04-17 14:13:00,59.4,23.5,30.27,ENE,74,10.0,20.0,25,0.00,,,0.00,meteohub,2013-04-17 21:13:00,
2013-04-17 14:18:00,59.7,25.7,30.27,NE,51,9.0,19.0,27,0.00,,,0.00,meteohub,2013-04-17 21:18:00,
2013-04-17 14:23:00,59.9,25.0,30.27,NE,44,16.0,18.0,26,0.00,,,0.00,meteohub,2013-04-17 21:23:00,
2013-04-17 14:28:00,60.1,25.2,30.27,ENE,75,7.0,18.0,26,0.00,,,0.00,meteohub,2013-04-17 21:28:00,
2013-04-17 14:33:00,60.1,26.8,30.26,NE,46,9.0,16.0,28,0.00,,,0.00,meteohub,2013-04-17 21:33:00,
2013-04-17 14:38:00,60.4,24.4,30.26,NNE,30,7.0,17.0,25,0.00,,,0.00,meteohub,2013-04-17 21:38:00,
2013-04-17 14:43:00,61.0,23.9,30.26,NNE,14,8.0,17.0,24,0.00,,,0.00,meteohub,2013-04-17 21:43:00,
2013-04-17 14:48:00,61.0,25.0,30.25,ENE,65,3.0,17.0,25,0.00,,,0.00,meteohub,2013-04-17 21:48:00,
2013-04-17 14:53:00,61.0,23.9,30.26,North,5,10.0,16.0,24,0.00,,,0.00,meteohub,2013-04-17 21:53:00,
2013-04-17 14:58:00,61.0,25.9,30.25,NE,35,5.0,17.0,26,0.00,,,0.00,meteohub,2013-04-17 21:58:00,
2013-04-17 15:03:00,61.5,25.3,30.26,NE,48,5.0,17.0,25,0.00,,,0.00,meteohub,2013-04-17 22:03:00,
2013-04-17 15:08:00,61.2,24.1,30.25,NNE,24,8.0,19.0,24,0.00,,,0.00,meteohub,2013-04-17 22:08:00,
2013-04-17 15:13:00,61.0,23.9,30.25,East,79,9.0,19.0,24,0.00,,,0.00,meteohub,2013-04-17 22:13:00,
2013-04-17 15:18:00,60.6,23.5,30.25,NNE,26,11.0,19.0,24,0.00,,,0.00,meteohub,2013-04-17 22:18:00,
2013-04-17 15:23:00,61.0,25.9,30.25,NE,46,5.0,19.0,26,0.00,,,0.00,meteohub,2013-04-17 22:23:00,
2013-04-17 15:28:00,61.5,24.4,30.24,NE,44,5.0,19.0,24,0.00,,,0.00,meteohub,2013-04-17 22:28:00,
2013-04-17 15:33:00,61.9,21.6,30.25,NE,50,8.0,19.0,21,0.00,,,0.00,meteohub,2013-04-17 22:33:00,
2013-04-17 15:38:00,61.5,23.4,30.25,North,0,3.0,17.0,23,0.00,,,0.00,meteohub,2013-04-17 22:38:00,
2013-04-17 15:43:00,61.5,24.4,30.25,ENE,61,11.0,17.0,24,0.00,,,0.00,meteohub,2013-04-17 22:43:00,
2013-04-17 15:48:00,61.3,19.9,30.24,NE,42,12.0,21.0,20,0.00,,,0.00,meteohub,2013-04-17 22:48:00,
2013-04-17 15:53:00,61.3,24.3,30.24,North,9,8.0,21.0,24,0.00,,,0.00,meteohub,2013-04-17 22:53:00,
2013-04-17 15:59:00,61.5,24.4,30.24,North,9,7.0,21.0,24,0.00,,,0.00,meteohub,2013-04-17 22:59:00,
2013-04-17 16:04:00,61.3,19.9,30.24,NNW,336,7.0,19.0,20,0.00,,,0.00,meteohub,2013-04-17 23:04:00,
2013-04-17 16:09:00,61.3,21.0,30.24,NE,48,2.0,20.0,21,0.00,,,0.00,meteohub,2013-04-17 23:09:00,
2013-04-17 16:14:00,61.5,23.4,30.23,NNW,344,9.0,20.0,23,0.00,,,0.00,meteohub,2013-04-17 23:14:00,
2013-04-17 16:19:00,62.1,22.8,30.23,NE,39,8.0,20.0,22,0.00,,,0.00,meteohub,2013-04-17 23:19:00,
2013-04-17 16:24:00,62.1,20.5,30.23,North,355,8.0,15.0,20,0.00,,,0.00,meteohub,2013-04-17 23:24:00,
2013-04-17 16:29:00,62.1,20.5,30.23,NNE,27,4.0,16.0,20,0.00,,,0.00,meteohub,2013-04-17 23:29:00,
2013-04-17 16:34:00,62.1,22.8,30.23,ENE,63,13.0,20.0,22,0.00,,,0.00,meteohub,2013-04-17 23:34:00,
2013-04-17 16:39:00,62.1,19.2,30.23,NE,50,5.0,20.0,19,0.00,,,0.00,meteohub,2013-04-17 23:39:00,
2013-04-17 16:44:00,62.1,19.2,30.23,NE,38,8.0,21.0,19,0.00,,,0.00,meteohub,2013-04-17 23:44:00,
2013-04-17 16:49:00,62.2,21.7,30.23,NE,53,10.0,21.0,21,0.00,,,0.00,meteohub,2013-04-17 23:49:00,
2013-04-17 16:54:00,62.1,20.5,30.23,NE,39,14.0,21.0,20,0.00,,,0.00,meteohub,2013-04-17 23:54:00,
2013-04-17 16:59:00,62.1,20.5,30.23,ENE,59,10.0,21.0,20,0.00,,,0.00,meteohub,2013-04-17 23:59:00,
2013-04-17 17:04:00,62.2,21.7,30.23,NNE,17,10.0,21.0,21,0.00,,,0.00,meteohub,2013-04-18 00:04:00,
2013-04-17 17:09:00,62.2,20.7,30.22,NE,43,8.0,19.0,20,0.00,,,0.00,meteohub,2013-04-18 00:09:00,
2013-04-17 17:14:00,62.2,23.0,30.22,NE,34,9.0,19.0,22,0.00,,,0.00,meteohub,2013-04-18 00:14:00,
2013-04-17 17:19:00,62.6,23.2,30.22,NNW,343,4.0,19.0,22,0.00,,,0.00,meteohub,2013-04-18 00:19:00,
2013-04-17 17:24:00,62.6,23.2,30.22,NNW,331,8.0,19.0,22,0.00,,,0.00,meteohub,2013-04-18 00:24:00,
2013-04-17 17:29:00,62.8,22.3,30.22,ENE,57,10.0,13.0,21,0.00,,,0.00,meteohub,2013-04-18 00:29:00,
2013-04-17 17:34:00,62.6,21.0,30.22,NNE,29,6.0,16.0,20,0.00,,,0.00,meteohub,2013-04-18 00:34:00,
2013-04-17 17:39:00,62.4,19.6,30.22,NE,49,13.0,16.0,19,0.00,,,0.00,meteohub,2013-04-18 00:39:00,
2013-04-17 17:44:00,62.2,16.9,30.22,NNE,18,7.0,16.0,17,0.00,,,0.00,meteohub,2013-04-18 00:44:00,
2013-04-17 17:49:00,62.2,19.4,30.22,NW,316,4.0,16.0,19,0.00,,,0.00,meteohub,2013-04-18 00:49:00,
2013-04-17 17:54:00,62.2,20.7,30.22,NE,38,4.0,16.0,20,0.00,,,0.00,meteohub,2013-04-18 00:54:00,
2013-04-17 17:59:00,62.2,19.4,30.22,NNE,31,8.0,16.0,19,0.00,,,0.00,meteohub,2013-04-18 00:59:00,
2013-04-17 18:04:00,62.2,20.7,30.22,NNE,18,11.0,15.0,20,0.00,,,0.00,meteohub,2013-04-18 01:04:00,
2013-04-17 18:09:00,62.2,21.7,30.22,North,355,5.0,15.0,21,0.00,,,0.00,meteohub,2013-04-18 01:09:00,
2013-04-17 18:14:00,62.1,18.0,30.22,NE,55,8.0,15.0,18,0.00,,,0.00,meteohub,2013-04-18 01:14:00,
2013-04-17 18:19:00,61.9,21.6,30.22,NE,37,8.0,11.0,21,0.00,,,0.00,meteohub,2013-04-18 01:19:00,
2013-04-17 18:24:00,61.7,20.1,30.22,ENE,62,9.0,14.0,20,0.00,,,0.00,meteohub,2013-04-18 01:24:00,
2013-04-17 18:29:00,61.3,19.9,30.22,ENE,73,7.0,14.0,20,0.00,,,0.00,meteohub,2013-04-18 01:29:00,
2013-04-17 18:34:00,61.2,19.8,30.22,NNW,343,7.0,14.0,20,0.00,,,0.00,meteohub,2013-04-18 01:34:00,
2013-04-17 18:39:00,61.0,20.8,30.22,NE,36,6.0,12.0,21,0.00,,,0.00,meteohub,2013-04-18 01:39:00,
2013-04-17 18:44:00,61.0,19.6,30.22,ENE,60,10.0,15.0,20,0.00,,,0.00,meteohub,2013-04-18 01:44:00,
2013-04-17 18:49:00,60.8,19.4,30.22,NNE,12,6.0,15.0,20,0.00,,,0.00,meteohub,2013-04-18 01:49:00,
2013-04-17 18:54:00,60.6,19.4,30.22,ENE,67,10.0,15.0,20,0.00,,,0.00,meteohub,2013-04-18 01:54:00,
2013-04-17 18:59:00,60.4,20.3,30.22,NNE,23,3.0,13.0,21,0.00,,,0.00,meteohub,2013-04-18 01:59:00,
2013-04-17 19:04:00,60.3,20.1,30.22,NNE,30,7.0,12.0,21,0.00,,,0.00,meteohub,2013-04-18 02:04:00,
2013-04-17 19:09:00,60.1,18.9,30.22,NNE,13,2.0,12.0,20,0.00,,,0.00,meteohub,2013-04-18 02:09:00,
2013-04-17 19:14:00,59.9,21.0,30.22,NE,56,4.0,10.0,22,0.00,,,0.00,meteohub,2013-04-18 02:14:00,
2013-04-17 19:19:00,59.7,20.8,30.22,ENE,62,4.0,10.0,22,0.00,,,0.00,meteohub,2013-04-18 02:19:00,
2013-04-17 19:24:00,59.4,19.4,30.22,NE,39,5.0,10.0,21,0.00,,,0.00,meteohub,2013-04-18 02:24:00,
2013-04-17 19:29:00,59.0,19.0,30.22,NNE,28,5.0,10.0,21,0.00,,,0.00,meteohub,2013-04-18 02:29:00,
2013-04-17 19:34:00,58.6,19.9,30.22,NE,51,8.0,9.0,22,0.00,,,0.00,meteohub,2013-04-18 02:34:00,
2013-04-17 19:39:00,58.5,18.7,30.22,NNE,31,6.0,13.0,21,0.00,,,0.00,meteohub,2013-04-18 02:39:00,
2013-04-17 19:44:00,58.5,20.8,30.22,NNE,15,7.0,13.0,23,0.00,,,0.00,meteohub,2013-04-18 02:44:00,
2013-04-17 19:49:00,58.3,17.4,30.22,NNE,27,6.0,13.0,20,0.00,,,0.00,meteohub,2013-04-18 02:49:00,
2013-04-17 19:54:00,58.3,18.5,30.22,NE,47,9.0,13.0,21,0.00,,,0.00,meteohub,2013-04-18 02:54:00,
2013-04-17 19:59:00,58.1,18.3,30.22,NE,56,6.0,13.0,21,0.00,,,0.00,meteohub,2013-04-18 02:59:00,
2013-04-17 20:04:00,58.3,17.4,30.22,ENE,60,9.0,13.0,20,0.00,,,0.00,meteohub,2013-04-18 03:04:00,
2013-04-17 20:09:00,58.1,18.3,30.22,NE,44,5.0,14.0,21,0.00,,,0.00,meteohub,2013-04-18 03:09:00,
2013-04-17 20:15:00,57.9,18.1,30.22,NE,47,9.0,14.0,21,0.00,,,0.00,meteohub,2013-04-18 03:15:00,
2013-04-17 20:20:00,57.7,18.1,30.23,North,5,4.0,14.0,21,0.00,,,0.00,meteohub,2013-04-18 03:20:00,
2013-04-17 20:25:00,57.7,18.1,30.23,NE,42,7.0,13.0,21,0.00,,,0.00,meteohub,2013-04-18 03:25:00,
2013-04-17 20:30:00,57.7,19.2,30.23,ENE,67,8.0,13.0,22,0.00,,,0.00,meteohub,2013-04-18 03:30:00,
2013-04-17 20:35:00,57.6,19.0,30.23,NE,34,6.0,12.0,22,0.00,,,0.00,meteohub,2013-04-18 03:35:00,
2013-04-17 20:40:00,57.6,19.0,30.24,NE,44,6.0,12.0,22,0.00,,,0.00,meteohub,2013-04-18 03:40:00,
2013-04-17 20:45:00,57.4,18.9,30.24,NE,45,7.0,11.0,22,0.00,,,0.00,meteohub,2013-04-18 03:45:00,
2013-04-17 20:50:00,57.4,18.9,30.24,NNE,30,8.0,10.0,22,0.00,,,0.00,meteohub,2013-04-18 03:50:00,
2013-04-17 20:55:00,57.4,18.9,30.25,NE,45,7.0,10.0,22,0.00,,,0.00,meteohub,2013-04-18 03:55:00,
2013-04-17 21:00:00,57.2,19.8,30.25,NE,53,8.0,10.0,23,0.00,,,0.00,meteohub,2013-04-18 04:00:00,
2013-04-17 21:01:00,57.2,19.8,30.25,ENE,62,9.0,10.0,23,0.00,,,0.00,meteohub,2013-04-18 04:01:00,
2013-04-17 21:02:00,57.2,18.7,30.25,NE,45,5.0,10.0,22,0.00,,,0.00,meteohub,2013-04-18 04:02:00,
2013-04-17 21:07:00,57.2,19.8,30.25,NNE,20,5.0,11.0,23,0.00,,,0.00,meteohub,2013-04-18 04:07:00,
2013-04-17 21:12:00,57.0,19.6,30.25,NNE,27,6.0,11.0,23,0.00,,,0.00,meteohub,2013-04-18 04:12:00,
2013-04-17 21:17:00,57.0,19.6,30.25,NE,42,4.0,11.0,23,0.00,,,0.00,meteohub,2013-04-18 04:17:00,
2013-04-17 21:22:00,57.0,19.6,30.25,NE,51,7.0,11.0,23,0.00,,,0.00,meteohub,2013-04-18 04:22:00,
2013-04-17 21:27:00,57.0,19.6,30.25,NNE,30,6.0,11.0,23,0.00,,,0.00,meteohub,2013-04-18 04:27:00,
2013-04-17 21:32:00,57.0,20.5,30.25,ENE,63,8.0,11.0,24,0.00,,,0.00,meteohub,2013-04-18 04:32:00,
2013-04-17 21:37:00,57.0,20.5,30.26,NE,35,5.0,11.0,24,0.00,,,0.00,meteohub,2013-04-18 04:37:00,
2013-04-17 21:42:00,57.0,21.6,30.26,NE,45,5.0,11.0,25,0.00,,,0.00,meteohub,2013-04-18 04:42:00,
2013-04-17 21:47:00,56.8,21.4,30.26,NE,39,7.0,10.0,25,0.00,,,0.00,meteohub,2013-04-18 04:47:00,
2013-04-17 21:52:00,56.8,21.4,30.26,NNE,30,5.0,10.0,25,0.00,,,0.00,meteohub,2013-04-18 04:52:00,
2013-04-17 21:57:00,56.8,21.4,30.26,ENE,75,3.0,10.0,25,0.00,,,0.00,meteohub,2013-04-18 04:57:00,
2013-04-17 22:02:00,56.8,21.4,30.27,ENE,63,8.0,9.0,25,0.00,,,0.00,meteohub,2013-04-18 05:02:00,
2013-04-17 22:07:00,56.8,21.4,30.26,ENE,63,7.0,9.0,25,0.00,,,0.00,meteohub,2013-04-18 05:07:00,
2013-04-17 22:12:00,56.7,21.2,30.27,ENE,63,7.0,9.0,25,0.00,,,0.00,meteohub,2013-04-18 05:12:00,
2013-04-17 22:17:00,56.5,21.9,30.26,NNE,19,6.0,11.0,26,0.00,,,0.00,meteohub,2013-04-18 05:17:00,
2013-04-17 22:22:00,56.5,21.9,30.26,North,5,5.0,11.0,26,0.00,,,0.00,meteohub,2013-04-18 05:22:00,
2013-04-17 22:27:00,56.3,23.5,30.26,NE,38,4.0,11.0,28,0.00,,,0.00,meteohub,2013-04-18 05:27:00,
2013-04-17 22:33:00,56.1,23.4,30.26,NE,53,5.0,11.0,28,0.00,,,0.00,meteohub,2013-04-18 05:33:00,
2013-04-17 22:38:00,56.1,23.4,30.26,NNE,26,3.0,12.0,28,0.00,,,0.00,meteohub,2013-04-18 05:38:00,
2013-04-17 22:43:00,56.3,23.5,30.26,NE,53,5.0,12.0,28,0.00,,,0.00,meteohub,2013-04-18 05:43:00,
2013-04-17 22:48:00,56.3,23.5,30.26,NNE,26,7.0,12.0,28,0.00,,,0.00,meteohub,2013-04-18 05:48:00,
2013-04-17 22:53:00,56.1,24.3,30.26,NNE,24,5.0,10.0,29,0.00,,,0.00,meteohub,2013-04-18 05:53:00,
2013-04-17 22:58:00,56.1,25.2,30.26,NW,315,6.0,9.0,30,0.00,,,0.00,meteohub,2013-04-18 05:58:00,
2013-04-17 23:03:00,55.9,25.0,30.26,NE,34,6.0,11.0,30,0.00,,,0.00,meteohub,2013-04-18 06:03:00,
2013-04-17 23:08:00,55.9,25.7,30.26,NNE,19,7.0,11.0,31,0.00,,,0.00,meteohub,2013-04-18 06:08:00,
2013-04-17 23:13:00,56.1,25.9,30.26,ENE,57,9.0,11.0,31,0.00,,,0.00,meteohub,2013-04-18 06:13:00,
2013-04-17 23:18:00,56.1,25.9,30.25,ENE,65,9.0,11.0,31,0.00,,,0.00,meteohub,2013-04-18 06:18:00,
2013-04-17 23:23:00,56.1,25.9,30.26,North,355,4.0,11.0,31,0.00,,,0.00,meteohub,2013-04-18 06:23:00,
2013-04-17 23:28:00,56.3,26.1,30.25,ENE,63,7.0,12.0,31,0.00,,,0.00,meteohub,2013-04-18 06:28:00,
2013-04-17 23:33:00,56.3,26.1,30.26,NW,326,6.0,12.0,31,0.00,,,0.00,meteohub,2013-04-18 06:33:00,
2013-04-17 23:38:00,56.5,26.2,30.26,NE,38,4.0,12.0,31,0.00,,,0.00,meteohub,2013-04-18 06:38:00,
2013-04-17 23:43:00,56.5,27.0,30.26,NNE,28,4.0,12.0,32,0.00,,,0.00,meteohub,2013-04-18 06:43:00,
2013-04-17 23:48:00,56.5,27.0,30.26,NNW,339,6.0,12.0,32,0.00,,,0.00,meteohub,2013-04-18 06:48:00,
2013-04-17 23:53:00,56.5,27.0,30.26,ENE,60,8.0,11.0,32,0.00,,,0.00,meteohub,2013-04-18 06:53:00,
2013-04-17 23:58:00,56.5,27.0,30.26,NW,306,4.0,10.0,32,0.00,,,0.00,meteohub,2013-04-18 06:58:00,